Regional Weather Roundup
Issued by NWS

Home | Current Version | Previous Version | Graphics & Text | Print | Product List | Glossary On
Versions: 1 2 3 4 5 6 7 8 9 10 11 12 13 14 15 16 17 18 19 20 21 22 23 24 25 26 27 28 29 30 31 32 33 34 35 36 37 38 39 40 41 42 43 44 45 46 47 48 49 50
000
ASUS43 KLMK 240902
RWRKY
KENTUCKY REGIONAL WEATHER ROUNDUP
NATIONAL WEATHER SERVICE LOUISVILLE KY
400 AM EST SAT FEB 24 2018

NOTE "FAIR" INDICATES FEW OR NO CLOUDS BELOW 12,000 FEET
WITH NO SIGNIFICANT WEATHER AND/OR OBSTRUCTIONS TO VISIBILITY.

KYZ001>023-026-027-061>063-070>075-241000-
WESTERN AND SOUTH CENTRAL KENTUCKY

CITY           SKY/WX    TMP DP  RH WIND       PRES   REMARKS
PADUCAH        CLOUDY    51  48  89 E9        30.07F
HENDERSON      LGT RAIN  48  47  96 NE9       30.11F
OWENSBORO      LGT RAIN  50  49  96 NE7       30.12F
HOPKINSVILLE   DRIZZLE   57  57 100 CALM      30.08F
BOWLING GREEN  LGT RAIN  58  58 100 CALM      30.10R FOG
GLASGOW        NOT AVBL
$$

KYZ024-025-028>034-038-045-046-053-241000-
NORTH CENTRAL KENTUCKY

CITY           SKY/WX    TMP DP  RH WIND       PRES   REMARKS
LOUISVILLE/SDF CLOUDY    53  51  93 N10       30.11F
LOUISVILLE/LOU LGT RAIN  52  52 100 N7        30.12F
FORT KNOX      CLOUDY    52  52 100 N7        30.11F
$$

KYZ035>037-039>044-047>052-055>060-089>105-241000-
NORTHEAST KENTUCKY

CITY           SKY/WX    TMP DP  RH WIND       PRES   REMARKS
LEXINGTON      CLOUDY    58  56  93 N8        30.11F FOG
COVINGTON      CLOUDY    50  49  96 NE10      30.13F
FRANKFORT      CLOUDY    56  53  90 N6        30.10F
$$

KYZ054-064>069-076>088-106>120-241000-
SOUTHEAST KENTUCKY

CITY           SKY/WX    TMP DP  RH WIND       PRES   REMARKS
JACKSON        CLOUDY    64  55  72 CALM      30.12F
LONDON         CLOUDY    60  57  89 CALM      30.11F
SOMERSET       CLOUDY    61  55  82 MISG      30.12F
MIDDLESBORO    FAIR      66  55  68 SE3       30.14F
MONTICELLO     LGT RAIN  61  57  87 W3        30.13F
$$




USA.gov is the U.S. government's official web portal to all federal, state and local government web resources and services.